CZ-6A DEB, 54320

Orbit data source: Space-Track

CZ-6A DEB, 54320 is space debris in SSO originally from a launch on Fri, 11 Nov 2022 UTC launched from the Taiyaun Space Center, China (TSC). Debris objects in space refer to the collection of defunct objects orbiting the Earth. Examples of debris include non-operational satellites, rocket bodies, and fragments generated from explosions, collisions, or faulty payload assembly.

Loading next visibility...
Identifier
54320, 2022-151BP
Orbit
SSO
Country
Flag of CNCN / PRC
Related business
Manufacturer
SAST
Mission
Spacecraft
Bus & Motor
Unknown
Mass
Unknown
Launch date (UTC)
2022-11-11 (4 years ago)
Launch vehicle
Unknown
Launch site
Taiyaun Space Center, China (TSC)
Object type
Payload
Rocket body
Debris
Shape & HBR
Unknown shape, 0.2 m
Radar Cross Section
Medium (>0.1 m² and <1 m²)

Expand to show TLE details & history
Last TLE update: 8 hours ago

TLE from 8 hours ago
0 CZ-6A DEB
1 54320U 22151BP  26263.20773937  .00000297  00000-0  24218-3 0  9990
2 54320  98.9634 232.1793 0133344 160.3368 200.3004 13.93068699195397
Epoch: 2026-09-20T04:59Z
TLE epoch observation values (Epoch: 2026-09-20T04:59:08.681Z)
Latitude
-0.00002°
Longitude
158.28791°
Altitude
1,012.183 km
Speed
7.299 km/s
True Right ascension
15h 28m 43s
True Declination
0° 00' 00"
Sunlit
Object was in daylight at epoch
Visualization orbit readout
Latitude
Unknown
Longitude
Unknown
Altitude
Unknown
Speed
Unknown
Apparent Right ascension
Unknown
Apparent Declination
Unknown
Sunlit
N/A
Visualization observer readout
Local Sidereal Time
06:09:55
Azimuth
Unknown
Elevation
Unknown
Doppler factor
Unknown
Orbital elements
Apogee altitude
1,012.354 km
Perigee altitude
817.852 km
Semi-major axis
7,293.24 km
Eccentricity
0.01333
Inclination
98.9634°
RAAN
232.1793°
Arg. of periapsis
160.3368°
True anomaly
199.77844°
Mean anomaly
200.3004°
Eccentric anomaly
200.03861°
Mean motion
3.48468 °/min
Orbital period
103.31 mins
BSTAR
0.00024218
Loading maneuver chart data...
Computing Atmospheric mass density...
Loading historical data...
Loading historical data...
Loading historical data...
Loading historical data...
Loading historical data...
Loading historical data...
Loading historical data...

Documentation

Showing up to 5 results
|